Satellite: MET-3/5
Catalog number: 21655
Epoch time:      08344.91006603
Element set:     526
Inclination:      082.5551 deg
RA of node:       340.2263 deg
Eccentricity:    0.0012682
Arg of perigee:   298.3400 deg
Mean anomaly:     061.6442 deg
Mean motion:   13.17017188 rev/day
Decay rate:        5.1e-07 rev/day^2
Epoch rev:           83271
Checksum:              273

Satellite: MET-2/21
Catalog number: 22782
Epoch time:      08346.52406316
Element set:     323
Inclination:      082.5471 deg
RA of node:       330.8854 deg
Eccentricity:    0.0023136
Arg of perigee:   149.3448 deg
Mean anomaly:     210.9082 deg
Mean motion:   13.83632164 rev/day
Decay rate:       1.27e-06 rev/day^2
Epoch rev:           77165
Checksum:              293

Satellite: OKEAN-4
Catalog number: 23317
Epoch time:      08346.08072388
Element set:     770
Inclination:      082.5377 deg
RA of node:       150.0198 deg
Eccentricity:    0.0020546
Arg of perigee:   264.4800 deg
Mean anomaly:     095.4074 deg
Mean motion:   14.82658015 rev/day
Decay rate:       1.49e-06 rev/day^2
Epoch rev:           76449
Checksum:              311

Satellite: NOAA-14
Catalog number: 23455
Epoch time:      08346.83509382
Element set:     425
Inclination:      098.9300 deg
RA of node:       059.0208 deg
Eccentricity:    0.0009482
Arg of perigee:   006.7283 deg
Mean anomaly:     353.4500 deg
Mean motion:   14.13753270 rev/day
Decay rate:       -1.0e-07 rev/day^2
Epoch rev:           71954
Checksum:              288

Satellite: NOAA-15
Catalog number: 25338
Epoch time:      08346.82605544
Element set:     731
Inclination:      098.5699 deg
RA of node:       334.3090 deg
Eccentricity:    0.0009801
Arg of perigee:   242.5643 deg
Mean anomaly:     117.5018 deg
Mean motion:   14.24736576 rev/day
Decay rate:        8.7e-07 rev/day^2
Epoch rev:           55010
Checksum:              310

Satellite: RESURS
Catalog number: 25394
Epoch time:      08346.50649902
Element set:      91
Inclination:      098.3627 deg
RA of node:       022.1771 deg
Eccentricity:    0.0002405
Arg of perigee:   048.6541 deg
Mean anomaly:     311.4846 deg
Mean motion:   14.24176414 rev/day
Decay rate:       -2.9e-07 rev/day^2
Epoch rev:           54168
Checksum:              290

Satellite: FENGYUN1
Catalog number: 25730
Epoch time:      08346.88256845
Element set:     635
Inclination:      098.7413 deg
RA of node:       316.8125 deg
Eccentricity:    0.0023005
Arg of perigee:   023.6599 deg
Mean anomaly:     336.5623 deg
Mean motion:   14.07899592 rev/day
Decay rate:       7.77e-06 rev/day^2
Epoch rev:           49396
Checksum:              344

Satellite: OKEAN-0
Catalog number: 25860
Epoch time:      08346.07753664
Element set:     546
Inclination:      097.7665 deg
RA of node:       328.9632 deg
Eccentricity:    0.0001863
Arg of perigee:   064.7188 deg
Mean anomaly:     295.4222 deg
Mean motion:   14.73548540 rev/day
Decay rate:        4.1e-07 rev/day^2
Epoch rev:           50544
Checksum:              321

Satellite: NOAA-16
Catalog number: 26536
Epoch time:      08346.86328638
Element set:     206
Inclination:      099.1708 deg
RA of node:       340.0657 deg
Eccentricity:    0.0011196
Arg of perigee:   087.4978 deg
Mean anomaly:     272.7948 deg
Mean motion:   14.12504479 rev/day
Decay rate:        1.4e-07 rev/day^2
Epoch rev:           42385
Checksum:              336

Satellite: NOAA-17
Catalog number: 27453
Epoch time:      08346.82167275
Element set:     213
Inclination:      098.5134 deg
RA of node:       046.1036 deg
Eccentricity:    0.0011087
Arg of perigee:   313.6046 deg
Mean anomaly:     046.4704 deg
Mean motion:   14.24024752 rev/day
Decay rate:       1.35e-06 rev/day^2
Epoch rev:           33608
Checksum:              279

Satellite: NOAA-18
Catalog number: 28654
Epoch time:      08346.80282212
Element set:     697
Inclination:      098.8879 deg
RA of node:       285.6978 deg
Eccentricity:    0.0014257
Arg of perigee:   169.2723 deg
Mean anomaly:     190.9224 deg
Mean motion:   14.11217461 rev/day
Decay rate:       2.67e-06 rev/day^2
Epoch rev:           18352
Checksum:              344

/EX
SB KEPS @ AMSAT  $ORB08346.M
Orbital Elements  08346.MISC

HR AMSAT ORBITAL ELEMENTS FOR MANNED AND MISCELLANEOUS SATELLITES
FROM WA5QGD FORT WORTH,TX December 11, 2008
Send Subscribe/unsubscribe to KEPS at 
http://www.amsat.org/mailman/listinfo/keps
BID: ORB08346.M
TO ALL RADIO AMATEURS BT

Satellite: HUBBLE
Catalog number: 20580
Epoch time:      08346.14780929
Element set:     281
Inclination:      028.4706 deg
RA of node:       248.9979 deg
Eccentricity:    0.0003862
Arg of perigee:   106.4277 deg
Mean anomaly:     253.6739 deg
Mean motion:   15.00437387 rev/day
Decay rate:       3.73e-06 rev/day^2
Epoch rev:           82158
Checksum:              327

Satellite: PO-34
Catalog number: 25520
Epoch time:      08346.46890278
Element set:     139
Inclination:      028.4594 deg
RA of node:       071.8284 deg
Eccentricity:    0.0004885
Arg of perigee:   061.0933 deg
Mean anomaly:     299.0144 deg
Mean motion:   15.17269357 rev/day
Decay rate:       3.34e-06 rev/day^2
Epoch rev:           56011
Checksum:              316

